Location: Unspecified
(0.0000°N, 0.0000°E)
Time: 09:42:11
(UTC+00:00)

A-11 Canister half - Pass Details

Date: 08 August 2021
Orbit: 1515 x 1685 km, 47.2° (Epoch: 27 September)

Event Time Altitude Azimuth Distance (km) Brightness Sun altitude
Rises 01:05:04 0° 302° (WNW) 4,926 - -68.2°
Reaches altitude 10° 01:08:32 10° 295° (WNW) 3,932 - -67.6°
Maximum altitude 01:17:40 39° 230° (SW) 2,306 - -66.0°
Drops below altitude 10° 01:26:39 10° 164° (SSE) 3,845 - -64.3°
Sets 01:30:02 0° 156° (SSE) 4,807 - -63.7°
